#�ϑ�����,���ϕ���,���ϕ���,�ő啗��,�ő啗����������,�ő�u�ԕ���,�ő�u�ԕ�����������
#(�N����),(m/s)   ,(16����),(m/s)   ,(16����)        ,(m/s)       ,(16����)            
2015/4/3 0:01,4.4,6,4.4,6,8.6,6
2015/4/3 0:02,4.3,6,4.4,6,3.5,8
2015/4/3 0:03,4,7,4.3,6,2.7,7
2015/4/3 0:04,3.7,7,4,6,3.7,7
2015/4/3 0:05,3.5,7,3.6,6,5.7,6
2015/4/3 0:06,3.5,7,3.5,6,7.8,6
2015/4/3 0:07,3.9,7,3.9,6,11.3,7
2015/4/3 0:08,3.6,7,3.9,6,5.8,5
2015/4/3 0:09,3.1,7,3.6,6,6.9,5
2015/4/3 0:10,3.3,6,3.4,6,8.5,7
2015/4/3 0:11,3.3,6,3.3,6,8.3,6
2015/4/3 0:12,3.7,6,3.7,7,7,7
2015/4/3 0:13,3.9,6,3.9,7,7.6,7
2015/4/3 0:14,4.3,6,4.3,6,9,8
2015/4/3 0:15,4.4,6,4.4,6,7.8,8
2015/4/3 0:16,4.5,6,4.5,6,7.2,8
2015/4/3 0:17,4.2,6,4.5,6,8.9,6
2015/4/3 0:18,4.4,6,4.4,6,7.9,6
2015/4/3 0:19,4.5,6,4.6,6,7.4,8
2015/4/3 0:20,4.3,6,4.5,6,8.1,7
2015/4/3 0:21,4.3,6,4.4,6,7.6,5
2015/4/3 0:22,4.2,6,4.3,6,5.8,6
2015/4/3 0:23,4.3,6,4.3,6,7.7,8
2015/4/3 0:24,4.2,6,4.3,6,7.5,8
2015/4/3 0:25,4.1,7,4.1,6,5.5,8
2015/4/3 0:26,3.8,7,4,6,7.1,6
2015/4/3 0:27,3.9,7,3.9,6,8.7,6
2015/4/3 0:28,3.8,7,4,6,6.1,6
2015/4/3 0:29,3.7,7,3.8,6,4.8,5
2015/4/3 0:30,3.7,6,3.7,6,5.5,7
2015/4/3 0:31,3.6,7,3.7,6,6.4,7
2015/4/3 0:32,3.5,7,3.6,6,4.9,7
2015/4/3 0:33,3.2,7,3.5,6,6.7,7
2015/4/3 0:34,3.1,6,3.2,6,5.5,7
2015/4/3 0:35,2.9,6,3.2,7,2.7,4
2015/4/3 0:36,2.9,6,2.9,7,3.3,7
2015/4/3 0:37,2.7,6,2.9,7,4.5,6
2015/4/3 0:38,2.6,6,2.7,7,5,4
2015/4/3 0:39,2.7,6,2.7,7,6.2,4
2015/4/3 0:40,2.6,6,2.7,7,4.5,5
2015/4/3 0:41,2.4,6,2.6,7,3.3,5
2015/4/3 0:42,2.4,5,2.4,7,4.2,4
2015/4/3 0:43,2.6,5,2.6,7,6.5,5
2015/4/3 0:44,2.9,5,2.9,6,8.2,5
2015/4/3 0:45,3,5,3,5,6.9,6
2015/4/3 0:46,3.1,5,3.1,5,4.5,6
2015/4/3 0:47,3,5,3.1,5,4.2,7
2015/4/3 0:48,3,6,3,5,4.4,8
2015/4/3 0:49,2.8,6,3,5,3.5,6
2015/4/3 0:50,2.8,6,2.8,5,3.7,7
2015/4/3 0:51,2.9,6,2.9,5,5.6,6
2015/4/3 0:52,3.1,6,3.1,5,7.1,5
2015/4/3 0:53,3.1,6,3.2,6,6.1,5
2015/4/3 0:54,2.9,6,3.1,6,3.8,5
2015/4/3 0:55,2.7,6,2.8,6,2.9,5
2015/4/3 0:56,2.7,6,2.7,6,3.7,5
2015/4/3 0:57,2.7,6,2.7,6,5.2,6
2015/4/3 0:58,2.9,6,2.9,6,5.5,5
2015/4/3 0:59,3.2,5,3.2,6,6.9,5
2015/4/3 1:00,3.5,5,3.5,5,8.1,6
2015/4/3 1:01,3.5,5,3.6,5,7.2,5
2015/4/3 1:02,3.3,5,3.5,5,5.4,5
2015/4/3 1:03,3.1,5,3.3,5,4.3,7
2015/4/3 1:04,3.1,5,3.1,5,4.5,7
2015/4/3 1:05,3.1,5,3.2,5,3.9,5
2015/4/3 1:06,3.1,5,3.1,5,1.9,5
2015/4/3 1:07,3,5,3.1,5,2.6,5
2015/4/3 1:08,2.8,5,3,5,3.1,5
2015/4/3 1:09,2.7,6,2.8,5,4.4,6
2015/4/3 1:10,2.4,6,2.6,5,5.1,6
2015/4/3 1:11,2.3,6,2.4,5,5.1,7
2015/4/3 1:12,2.3,6,2.4,5,3.1,6
2015/4/3 1:13,2.2,6,2.3,5,1.8,3
2015/4/3 1:14,2.1,5,2.2,5,3.8,3
2015/4/3 1:15,2,5,2.1,5,4.4,5
2015/4/3 1:16,2,5,2,6,1.6,6
2015/4/3 1:17,2.2,5,2.2,5,5.4,5
2015/4/3 1:18,2.3,5,2.3,6,5.2,6
2015/4/3 1:19,2.3,5,2.4,6,5.1,5
2015/4/3 1:20,2.3,5,2.3,6,3.1,5
2015/4/3 1:21,2.3,5,2.3,6,4.7,5
2015/4/3 1:22,2.4,5,2.4,5,3.1,2
2015/4/3 1:23,2.5,5,2.5,5,3.2,3
2015/4/3 1:24,2.6,4,2.6,5,4.2,4
2015/4/3 1:25,2.6,4,2.6,5,2.9,3
2015/4/3 1:26,2.7,4,2.7,4,3.3,3
2015/4/3 1:27,2.6,4,2.7,4,3.3,4
2015/4/3 1:28,2.5,4,2.6,4,3.6,3
2015/4/3 1:29,2.4,4,2.5,4,3.1,4
2015/4/3 1:30,2.4,3,2.4,4,3,3
2015/4/3 1:31,2.4,3,2.4,4,4.8,5
2015/4/3 1:32,2.5,4,2.5,4,3.9,5
2015/4/3 1:33,2.4,4,2.5,4,3,5
2015/4/3 1:34,2.3,4,2.4,4,3.9,3
2015/4/3 1:35,2.4,4,2.4,4,4.5,2
2015/4/3 1:36,2.5,4,2.5,4,5.5,5
2015/4/3 1:37,2.7,5,2.7,4,5.8,5
2015/4/3 1:38,2.8,5,2.8,5,5.2,3
2015/4/3 1:39,3,4,3,4,5.8,5
2015/4/3 1:40,3,5,3,4,5.1,4
2015/4/3 1:41,2.9,4,3,4,3.5,5
2015/4/3 1:42,2.9,4,2.9,4,5.4,5
2015/4/3 1:43,3.2,4,3.2,4,6.7,5
2015/4/3 1:44,3.4,4,3.4,4,5.7,5
2015/4/3 1:45,3.6,4,3.6,4,5.7,5
2015/4/3 1:46,3.5,4,3.6,4,6,6
2015/4/3 1:47,3.3,4,3.5,4,3.5,4
2015/4/3 1:48,3.2,4,3.3,4,2.5,4
2015/4/3 1:49,2.9,4,3.2,4,3,4
2015/4/3 1:50,2.9,4,2.9,4,3.8,3
2015/4/3 1:51,2.9,4,2.9,4,3,3
2015/4/3 1:52,2.9,4,2.9,4,6,6
2015/4/3 1:53,2.8,4,2.9,4,5.1,5
2015/4/3 1:54,2.7,4,2.8,4,4.8,4
2015/4/3 1:55,2.7,4,2.7,4,4.8,5
2015/4/3 1:56,2.7,4,2.7,4,4.4,4
2015/4/3 1:57,2.9,4,2.9,4,6.8,4
2015/4/3 1:58,2.9,4,2.9,4,3.3,6
2015/4/3 1:59,2.9,4,2.9,4,4.2,5
2015/4/3 2:00,3,5,3,5,4.4,6
2015/4/3 2:01,3,5,3,5,4.8,6
2015/4/3 2:02,3,5,3.1,5,4.2,5
2015/4/3 2:03,3,5,3,5,4.5,5
2015/4/3 2:04,3,5,3,5,5,6
2015/4/3 2:05,2.8,5,2.9,5,3.5,6
2015/4/3 2:06,2.9,5,2.9,5,6.5,5
2015/4/3 2:07,2.9,5,3,5,6.7,5
2015/4/3 2:08,3,5,3,5,4.9,5
2015/4/3 2:09,3.1,5,3.1,5,5.6,6
2015/4/3 2:10,3,5,3.1,5,4.2,6
2015/4/3 2:11,3,5,3,5,4.2,5
2015/4/3 2:12,3.1,5,3.1,5,4.7,5
2015/4/3 2:13,3,5,3.1,5,5.4,3
2015/4/3 2:14,3.1,5,3.1,5,4.9,4
2015/4/3 2:15,3.3,5,3.3,5,5.5,6
2015/4/3 2:16,3.2,5,3.3,5,5.1,5
2015/4/3 2:17,3.1,5,3.2,5,5.5,6
2015/4/3 2:18,3,5,3.1,5,3.5,5
2015/4/3 2:19,2.9,5,3,5,2.7,5
2015/4/3 2:20,2.9,5,2.9,5,3.8,4
2015/4/3 2:21,2.8,5,2.9,5,3.2,4
2015/4/3 2:22,2.7,5,2.8,5,3.6,4
2015/4/3 2:23,2.7,5,2.8,5,3.6,6
2015/4/3 2:24,2.5,5,2.7,5,2.6,5
2015/4/3 2:25,2.4,5,2.5,5,4.7,2
2015/4/3 2:26,2.4,5,2.4,5,4.2,3
2015/4/3 2:27,2.3,5,2.4,5,4.3,6
2015/4/3 2:28,2.3,5,2.3,5,3,5
2015/4/3 2:29,2.4,5,2.4,5,4.5,4
2015/4/3 2:30,2.4,5,2.4,5,3.1,4
2015/4/3 2:31,2.3,4,2.4,5,2.9,3
2015/4/3 2:32,2.2,4,2.3,5,2,2
2015/4/3 2:33,2.2,4,2.2,5,4.8,5
2015/4/3 2:34,2.3,4,2.3,5,3.7,6
2015/4/3 2:35,2.2,4,2.3,5,4.2,3
2015/4/3 2:36,2.3,4,2.3,5,4.3,3
2015/4/3 2:37,2.2,4,2.3,5,4.1,3
2015/4/3 2:38,2.3,3,2.3,5,4.1,3
2015/4/3 2:39,2.2,3,2.3,5,2.7,4
2015/4/3 2:40,2.2,3,2.2,5,4.1,3
2015/4/3 2:41,2.3,3,2.3,4,3.5,4
2015/4/3 2:42,2.5,4,2.5,4,5,6
2015/4/3 2:43,2.5,3,2.5,4,3.9,3
2015/4/3 2:44,2.5,4,2.5,4,3.6,5
2015/4/3 2:45,2.4,4,2.5,4,2.9,5
2015/4/3 2:46,2.2,4,2.4,4,3.3,5
2015/4/3 2:47,2.3,4,2.3,4,3.9,4
2015/4/3 2:48,2.4,4,2.4,4,4.7,3
2015/4/3 2:49,2.6,4,2.6,4,4.4,3
2015/4/3 2:50,2.6,4,2.6,4,3.9,4
2015/4/3 2:51,2.6,4,2.6,4,3.9,5
2015/4/3 2:52,2.5,4,2.6,4,2.6,5
2015/4/3 2:53,2.4,4,2.5,4,2,5
2015/4/3 2:54,2.3,4,2.3,4,2.9,5
2015/4/3 2:55,2.5,5,2.5,4,3.1,6
2015/4/3 2:56,2.7,4,2.7,4,5.7,6
2015/4/3 2:57,2.7,5,2.7,4,6,5
2015/4/3 2:58,2.7,5,2.7,4,5.8,6
2015/4/3 2:59,2.7,5,2.7,4,5,4
2015/4/3 3:00,2.9,5,2.9,5,6.3,5
2015/4/3 3:01,3.1,5,3.1,5,7,5
2015/4/3 3:02,3.2,5,3.2,5,5.1,5
2015/4/3 3:03,3.3,5,3.3,5,4.7,5
2015/4/3 3:04,3.3,5,3.4,5,3.3,4
2015/4/3 3:05,3.3,5,3.3,5,4.2,5
2015/4/3 3:06,3.2,5,3.3,5,3.5,5
2015/4/3 3:07,3.2,5,3.2,5,4.2,4
2015/4/3 3:08,3.2,5,3.3,5,5,4
2015/4/3 3:09,3.1,5,3.2,5,4.5,5
2015/4/3 3:10,2.9,5,3,5,3.9,4
2015/4/3 3:11,2.8,5,2.9,5,6.7,6
2015/4/3 3:12,2.9,5,2.9,5,5.4,6
2015/4/3 3:13,2.8,5,2.9,5,4.9,6
2015/4/3 3:14,2.8,5,2.8,5,3.8,6
2015/4/3 3:15,2.8,5,2.8,5,3.8,7
2015/4/3 3:16,2.6,5,2.7,5,2.4,7
2015/4/3 3:17,2.5,6,2.6,5,3.7,8
2015/4/3 3:18,2.4,6,2.4,5,4.9,5
2015/4/3 3:19,2.4,6,2.4,5,4.3,6
2015/4/3 3:20,2.5,6,2.5,5,4.2,5
2015/4/3 3:21,2.5,6,2.5,5,5.1,6
2015/4/3 3:22,2.3,6,2.5,5,3.3,6
2015/4/3 3:23,2.2,6,2.2,5,3,6
2015/4/3 3:24,2.1,6,2.2,5,2.5,6
2015/4/3 3:25,2,6,2.1,5,1.8,4
2015/4/3 3:26,2.1,6,2.1,5,5.1,6
2015/4/3 3:27,2.3,6,2.3,6,4.7,6
2015/4/3 3:28,2.3,6,2.4,6,4.3,5
2015/4/3 3:29,2.4,6,2.4,6,4.7,4
2015/4/3 3:30,2.4,6,2.4,6,5.6,7
2015/4/3 3:31,2.3,6,2.4,6,3.8,5
2015/4/3 3:32,2.3,6,2.3,6,3.1,8
2015/4/3 3:33,2.4,5,2.4,6,6.2,5
2015/4/3 3:34,2.6,5,2.6,5,6,4
2015/4/3 3:35,2.8,5,2.8,5,6.4,5
2015/4/3 3:36,2.8,5,2.9,5,5.4,6
2015/4/3 3:37,2.9,5,2.9,5,6.2,4
2015/4/3 3:38,3.1,5,3.1,5,6.2,5
2015/4/3 3:39,3.1,5,3.1,5,5.5,5
2015/4/3 3:40,3,5,3.1,5,4.8,5
2015/4/3 3:41,3,5,3,5,4.3,5
2015/4/3 3:42,3,5,3,5,2.7,6
2015/4/3 3:43,3,5,3.1,5,3.5,4
2015/4/3 3:44,2.9,5,3,5,5.6,5
2015/4/3 3:45,2.8,5,2.9,5,4.5,5
2015/4/3 3:46,2.8,5,2.8,5,3.6,5
2015/4/3 3:47,2.6,5,2.8,5,3.5,5
2015/4/3 3:48,2.4,5,2.6,5,3.9,5
2015/4/3 3:49,2.2,5,2.4,5,3.2,4
2015/4/3 3:50,2.2,5,2.3,5,3.7,4
2015/4/3 3:51,2.2,5,2.2,5,3.6,4
2015/4/3 3:52,2.3,5,2.3,5,4.1,5
2015/4/3 3:53,2.3,5,2.4,5,3.8,4
2015/4/3 3:54,2.5,5,2.5,5,4.7,5
2015/4/3 3:55,2.5,4,2.5,5,3.6,4
2015/4/3 3:56,2.5,4,2.5,5,2.6,6
2015/4/3 3:57,2.5,4,2.5,5,2.6,4
2015/4/3 3:58,2.4,4,2.5,5,3.3,4
2015/4/3 3:59,2.5,4,2.5,5,4.9,5
2015/4/3 4:00,2.6,4,2.6,4,5.6,4
2015/4/3 4:01,2.7,4,2.7,4,4.1,4
2015/4/3 4:02,2.7,4,2.7,4,5.2,3
2015/4/3 4:03,2.6,4,2.7,4,3.2,3
2015/4/3 4:04,2.5,4,2.6,4,3.7,4
2015/4/3 4:05,2.4,4,2.5,4,2.7,6
2015/4/3 4:06,2.4,4,2.4,4,3.2,4
2015/4/3 4:07,2.5,4,2.5,4,3.5,4
2015/4/3 4:08,2.6,4,2.6,4,4.8,5
2015/4/3 4:09,2.5,4,2.6,4,3.7,6
2015/4/3 4:10,2.3,4,2.5,4,2.9,5
2015/4/3 4:11,2.3,4,2.3,4,3.2,4
2015/4/3 4:12,2.3,4,2.3,4,4.1,3
2015/4/3 4:13,2.5,4,2.5,4,5.4,4
2015/4/3 4:14,2.6,4,2.6,4,5.4,4
2015/4/3 4:15,2.7,4,2.7,4,5.4,4
2015/4/3 4:16,2.7,4,2.8,4,4.4,3
2015/4/3 4:17,3,4,3,4,6.3,5
2015/4/3 4:18,3,4,3,4,5,4
2015/4/3 4:19,3.1,4,3.1,4,5.4,4
2015/4/3 4:20,3.3,4,3.3,4,5.1,4
2015/4/3 4:21,3.4,5,3.4,4,4.5,6
2015/4/3 4:22,3.2,5,3.3,4,3.6,6
2015/4/3 4:23,3.1,5,3.2,4,3.5,5
2015/4/3 4:24,3,5,3.1,4,3.5,6
2015/4/3 4:25,2.8,5,3,4,2.5,6
2015/4/3 4:26,2.9,5,2.9,4,3.6,5
2015/4/3 4:27,2.6,5,2.8,4,3.2,3
2015/4/3 4:28,2.5,4,2.6,4,3.1,3
2015/4/3 4:29,2.5,4,2.5,4,4.5,4
2015/4/3 4:30,2.4,4,2.5,4,5.6,4
2015/4/3 4:31,2.3,4,2.4,5,3.7,5
2015/4/3 4:32,2.5,4,2.5,5,5,4
2015/4/3 4:33,2.6,4,2.6,5,5.2,5
2015/4/3 4:34,2.6,4,2.6,5,3.7,4
2015/4/3 4:35,2.7,4,2.7,5,3,5
2015/4/3 4:36,2.6,4,2.7,5,3.5,4
2015/4/3 4:37,2.7,4,2.7,4,2.7,3
2015/4/3 4:38,2.7,4,2.7,4,3.3,3
2015/4/3 4:39,2.7,4,2.7,4,4.5,4
2015/4/3 4:40,2.6,4,2.7,4,3.6,6
2015/4/3 4:41,2.6,4,2.6,4,3.3,4
2015/4/3 4:42,2.5,4,2.6,4,3.1,3
2015/4/3 4:43,2.5,4,2.5,4,4.2,4
2015/4/3 4:44,2.4,4,2.5,4,3,4
2015/4/3 4:45,2.3,4,2.4,4,2.5,4
2015/4/3 4:46,2.3,4,2.4,4,3.7,3
2015/4/3 4:47,2.5,4,2.5,4,4.9,4
2015/4/3 4:48,2.6,4,2.6,4,5.5,4
2015/4/3 4:49,2.5,4,2.6,4,3.9,6
2015/4/3 4:50,2.5,4,2.6,4,5,5
2015/4/3 4:51,2.5,4,2.5,4,3.8,6
2015/4/3 4:52,2.5,4,2.6,4,2.6,5
2015/4/3 4:53,2.4,5,2.5,4,3.5,5
2015/4/3 4:54,2.4,5,2.4,4,3,4
2015/4/3 4:55,2.5,5,2.5,4,3.7,4
2015/4/3 4:56,2.5,5,2.5,4,3.8,4
2015/4/3 4:57,2.4,4,2.5,4,3.7,3
2015/4/3 4:58,2.3,4,2.4,4,3.5,3
2015/4/3 4:59,2.3,4,2.3,4,3.8,3
2015/4/3 5:00,2.3,4,2.3,4,3.8,3
2015/4/3 5:01,2.3,3,2.3,4,4.3,2
2015/4/3 5:02,2.3,3,2.3,4,3.7,3
2015/4/3 5:03,2.4,3,2.4,5,3.5,3
2015/4/3 5:04,2.5,3,2.5,5,4.9,4
2015/4/3 5:05,2.5,3,2.5,5,3.6,3
2015/4/3 5:06,2.5,3,2.5,4,3.7,2
2015/4/3 5:07,2.5,3,2.5,3,4.8,4
2015/4/3 5:08,2.6,3,2.6,3,4.8,4
2015/4/3 5:09,2.7,3,2.7,3,4.8,3
2015/4/3 5:10,2.8,3,2.8,3,4.2,3
2015/4/3 5:11,2.8,3,2.8,3,4.1,2
2015/4/3 5:12,2.9,3,2.9,3,4.1,4
2015/4/3 5:13,2.9,3,2.9,3,3.7,5
2015/4/3 5:14,2.8,3,2.9,3,2.5,3
2015/4/3 5:15,2.7,3,2.8,3,3.7,3
2015/4/3 5:16,2.8,3,2.8,3,3.9,3
2015/4/3 5:17,2.8,3,2.8,3,4.2,3
2015/4/3 5:18,2.7,3,2.8,3,3.7,3
2015/4/3 5:19,2.6,3,2.7,3,3.8,2
2015/4/3 5:20,2.5,3,2.6,3,4.9,5
2015/4/3 5:21,2.5,3,2.5,3,3.6,3
2015/4/3 5:22,2.5,3,2.5,3,3.7,4
2015/4/3 5:23,2.4,3,2.5,3,3.1,3
2015/4/3 5:24,2.5,3,2.5,3,3.6,3
2015/4/3 5:25,2.4,3,2.5,3,2.9,3
2015/4/3 5:26,2.4,3,2.4,3,3.6,3
2015/4/3 5:27,2.3,3,2.5,3,3.6,2
2015/4/3 5:28,2.2,3,2.3,3,1.8,4
2015/4/3 5:29,2.1,3,2.2,3,2.2,2
2015/4/3 5:30,1.9,3,2.1,3,1.6,3
2015/4/3 5:31,1.9,3,1.9,3,2.4,2
2015/4/3 5:32,1.8,3,1.9,3,2.1,2
2015/4/3 5:33,1.7,3,1.8,3,2.5,3
2015/4/3 5:34,1.7,3,1.7,3,3,3
2015/4/3 5:35,1.7,3,1.7,3,2.7,4
2015/4/3 5:36,1.7,3,1.7,3,3.7,5
2015/4/3 5:37,1.7,3,1.7,3,3.2,5
2015/4/3 5:38,1.8,3,1.8,3,3.5,3
2015/4/3 5:39,1.9,3,1.9,3,3.5,4
2015/4/3 5:40,2.1,3,2.1,3,3.2,3
2015/4/3 5:41,2.2,3,2.2,3,4.3,4
2015/4/3 5:42,2.2,3,2.2,3,2.9,3
2015/4/3 5:43,2.2,3,2.2,3,3.7,4
2015/4/3 5:44,2.2,3,2.2,3,4.2,4
2015/4/3 5:45,2.2,3,2.2,3,4.8,2
2015/4/3 5:46,2.3,3,2.3,3,5.4,4
2015/4/3 5:47,2.3,3,2.3,3,3.9,4
2015/4/3 5:48,2.2,3,2.3,3,1.9,2
2015/4/3 5:49,2.2,3,2.2,3,2.5,2
2015/4/3 5:50,2.1,3,2.2,3,2,2
2015/4/3 5:51,1.9,3,2,3,2.6,1
2015/4/3 5:52,2,3,2,3,3.7,3
2015/4/3 5:53,2.1,2,2.1,3,4.2,2
2015/4/3 5:54,2.1,2,2.1,3,4.2,3
2015/4/3 5:55,2.2,2,2.3,3,4.5,3
2015/4/3 5:56,2.1,2,2.2,3,3.5,4
2015/4/3 5:57,2.1,2,2.1,3,3.2,2
2015/4/3 5:58,2.2,2,2.2,3,3,3
2015/4/3 5:59,2.2,2,2.2,3,3.1,4
2015/4/3 6:00,2.4,2,2.4,2,3.7,3
2015/4/3 6:01,2.5,2,2.5,2,4.5,3
2015/4/3 6:02,2.6,2,2.6,2,5.5,3
2015/4/3 6:03,2.7,3,2.7,2,5.2,2
2015/4/3 6:04,2.7,3,2.8,3,4.4,3
2015/4/3 6:05,2.6,3,2.7,3,3.2,3
2015/4/3 6:06,2.7,3,2.7,3,4.5,3
2015/4/3 6:07,2.8,3,2.8,3,3.8,3
2015/4/3 6:08,2.9,3,2.9,3,4.3,3
2015/4/3 6:09,2.8,3,2.9,3,4.1,4
2015/4/3 6:10,2.8,3,2.8,3,3,4
2015/4/3 6:11,2.7,3,2.8,3,3.6,3
2015/4/3 6:12,2.6,3,2.7,3,2.9,3
2015/4/3 6:13,2.5,3,2.5,3,3.8,2
2015/4/3 6:14,2.4,3,2.4,3,3.1,2
2015/4/3 6:15,2.3,3,2.4,3,3.5,1
2015/4/3 6:16,2.2,3,2.3,3,2.9,2
2015/4/3 6:17,2.1,2,2.2,3,2.6,1
2015/4/3 6:18,2,2,2.1,3,3.7,2
2015/4/3 6:19,2,2,2,3,3,3
2015/4/3 6:20,2,2,2,3,4.2,3
2015/4/3 6:21,2,2,2,3,3.5,3
2015/4/3 6:22,2,2,2,3,3.5,3
2015/4/3 6:23,2,2,2.1,3,3.5,2
2015/4/3 6:24,2,2,2,3,3.7,3
2015/4/3 6:25,2,2,2,3,3.1,2
2015/4/3 6:26,2,2,2,3,3,3
2015/4/3 6:27,2,2,2,2,3.1,2
2015/4/3 6:28,2,2,2,2,2.9,4
2015/4/3 6:29,2,2,2,2,3.3,2
2015/4/3 6:30,2,2,2.1,2,3.3,4
2015/4/3 6:31,2.1,2,2.1,2,3.9,3
2015/4/3 6:32,2.1,2,2.1,2,4.3,3
2015/4/3 6:33,2.1,3,2.1,2,3.6,4
2015/4/3 6:34,2.2,3,2.2,3,3,3
2015/4/3 6:35,2.1,3,2.1,3,2,3
2015/4/3 6:36,2.1,3,2.1,3,3.3,1
2015/4/3 6:37,2.1,3,2.1,3,2.7,2
2015/4/3 6:38,2.1,3,2.1,3,3.7,2
2015/4/3 6:39,2,3,2.1,3,1.9,2
2015/4/3 6:40,1.9,3,2,3,2.1,3
2015/4/3 6:41,1.8,3,1.9,3,3.6,3
2015/4/3 6:42,1.9,3,1.9,3,3.6,3
2015/4/3 6:43,1.8,3,1.9,3,3.2,3
2015/4/3 6:44,1.8,2,1.8,3,2.5,3
2015/4/3 6:45,1.9,3,1.9,3,3.5,2
2015/4/3 6:46,1.9,3,1.9,3,3.3,3
2015/4/3 6:47,1.9,3,1.9,3,2.4,1
2015/4/3 6:48,1.9,3,1.9,3,3,3
2015/4/3 6:49,2,3,2,3,3.2,2
2015/4/3 6:50,2,3,2,3,2.4,4
2015/4/3 6:51,1.8,3,1.9,3,3,3
2015/4/3 6:52,1.7,3,1.8,3,3,3
2015/4/3 6:53,1.8,3,1.8,3,2.5,3
2015/4/3 6:54,1.8,3,1.8,3,3.3,3
2015/4/3 6:55,1.8,3,1.9,3,2.9,3
2015/4/3 6:56,1.7,3,1.8,3,1.8,6
2015/4/3 6:57,1.8,3,1.8,3,2.9,4
2015/4/3 6:58,1.8,3,1.8,3,3.2,2
2015/4/3 6:59,1.7,3,1.8,3,3.5,3
2015/4/3 7:00,1.8,3,1.8,3,2.5,3
2015/4/3 7:01,1.8,3,1.8,3,3.1,3
2015/4/3 7:02,1.9,3,1.9,3,3.2,5
2015/4/3 7:03,1.9,3,1.9,3,3.6,5
2015/4/3 7:04,2,3,2,3,3.9,3
2015/4/3 7:05,2.1,3,2.1,3,4.1,3
2015/4/3 7:06,2.2,3,2.2,3,3.6,3
2015/4/3 7:07,2.2,3,2.2,3,2.4,3
2015/4/3 7:08,2.2,3,2.2,3,2.6,3
2015/4/3 7:09,2.2,3,2.2,3,3,5
2015/4/3 7:10,2.2,4,2.3,4,2.9,5
2015/4/3 7:11,2.3,4,2.3,4,3,4
2015/4/3 7:12,2.2,4,2.3,4,3.1,4
2015/4/3 7:13,2.2,4,2.2,4,2.6,3
2015/4/3 7:14,2.1,4,2.1,4,4.2,5
2015/4/3 7:15,2,4,2.1,4,3.7,5
2015/4/3 7:16,2,4,2,4,3.2,5
2015/4/3 7:17,2.1,4,2.1,4,5.8,3
2015/4/3 7:18,2.3,4,2.3,4,4.9,3
2015/4/3 7:19,2.3,4,2.3,4,4.1,4
2015/4/3 7:20,2.4,4,2.4,4,4.5,5
2015/4/3 7:21,2.5,4,2.5,4,4.7,5
2015/4/3 7:22,2.6,4,2.6,4,5.5,5
2015/4/3 7:23,2.7,4,2.7,4,3.8,5
2015/4/3 7:24,2.7,5,2.8,5,3.1,5
2015/4/3 7:25,2.6,5,2.7,5,2.6,6
2015/4/3 7:26,2.6,5,2.6,5,2.2,5
2015/4/3 7:27,2.6,5,2.6,5,4.7,4
2015/4/3 7:28,2.6,5,2.6,5,4.2,4
2015/4/3 7:29,2.6,5,2.6,5,3.5,5
2015/4/3 7:30,2.6,5,2.6,5,5.2,4
2015/4/3 7:31,2.6,5,2.6,5,4.2,3
2015/4/3 7:32,2.5,4,2.6,5,3.5,3
2015/4/3 7:33,2.4,4,2.5,5,3,3
2015/4/3 7:34,2.4,4,2.4,5,3.5,3
2015/4/3 7:35,2.5,4,2.5,5,3.8,6
2015/4/3 7:36,2.6,4,2.6,5,3.9,3
2015/4/3 7:37,2.5,4,2.6,5,3.8,6
2015/4/3 7:38,2.4,4,2.5,5,3,6
2015/4/3 7:39,2.4,4,2.4,5,3.6,4
2015/4/3 7:40,2.3,4,2.4,5,4.3,3
2015/4/3 7:41,2.3,4,2.3,5,3.7,2
2015/4/3 7:42,2.3,4,2.3,4,4.5,6
2015/4/3 7:43,2.4,4,2.4,4,4.5,5
2015/4/3 7:44,2.4,5,2.4,4,3.2,5
2015/4/3 7:45,2.4,5,2.4,4,3.5,5
2015/4/3 7:46,2.3,5,2.4,4,2.2,4
2015/4/3 7:47,2.3,4,2.3,4,2.7,5
2015/4/3 7:48,2.3,4,2.3,4,2.7,5
2015/4/3 7:49,2.2,4,2.3,4,2.9,4
2015/4/3 7:50,2.1,4,2.2,4,3,3
2015/4/3 7:51,2.1,4,2.1,4,2.2,4
2015/4/3 7:52,2,4,2.1,4,3.5,2
2015/4/3 7:53,2,4,2,4,3.9,3
2015/4/3 7:54,2,4,2,5,3.2,5
2015/4/3 7:55,2,4,2,5,3,6
2015/4/3 7:56,2,4,2,4,3.5,6
2015/4/3 7:57,2.1,4,2.1,4,3.9,7
2015/4/3 7:58,2.1,4,2.1,4,3.7,6
2015/4/3 7:59,2.2,5,2.2,4,6.1,5
2015/4/3 8:00,2.3,5,2.3,5,5.8,5
2015/4/3 8:01,2.7,5,2.7,5,6.1,5
2015/4/3 8:02,2.8,5,2.8,5,4.5,5
2015/4/3 8:03,2.8,5,2.8,5,5.7,6
2015/4/3 8:04,2.8,5,2.8,5,5,3
2015/4/3 8:05,3,5,3,5,5.7,3
2015/4/3 8:06,3.1,5,3.1,5,4.8,4
2015/4/3 8:07,3.2,5,3.2,5,4.7,4
2015/4/3 8:08,3.3,5,3.3,5,4.8,4
2015/4/3 8:09,3.1,5,3.3,5,3.8,6
2015/4/3 8:10,3.1,5,3.1,5,3.7,6
2015/4/3 8:11,2.9,5,3,5,4.2,4
2015/4/3 8:12,2.8,5,2.9,5,3.8,4
2015/4/3 8:13,2.8,5,2.9,5,3.8,4
2015/4/3 8:14,2.8,5,2.9,5,3.9,3
2015/4/3 8:15,2.8,5,2.8,5,7.7,4
2015/4/3 8:16,2.8,5,2.8,5,4.3,5
2015/4/3 8:17,2.7,5,2.7,5,3.9,6
2015/4/3 8:18,2.6,5,2.7,5,2.6,3
2015/4/3 8:19,2.7,4,2.7,5,4.4,5
2015/4/3 8:20,2.6,4,2.7,5,2.9,5
2015/4/3 8:21,2.5,4,2.6,5,3.5,5
2015/4/3 8:22,2.6,4,2.6,5,3.9,4
2015/4/3 8:23,2.6,4,2.6,5,4.1,3
2015/4/3 8:24,2.5,4,2.6,5,3.7,6
2015/4/3 8:25,2.4,4,2.5,5,3.2,5
2015/4/3 8:26,2.5,4,2.5,5,3.7,4
2015/4/3 8:27,2.5,4,2.5,5,4.4,3
2015/4/3 8:28,2.5,4,2.5,5,3.2,5
2015/4/3 8:29,2.5,4,2.5,4,3.5,3
2015/4/3 8:30,2.5,4,2.5,4,3.1,4
2015/4/3 8:31,2.5,4,2.5,4,3.8,5
2015/4/3 8:32,2.4,4,2.5,4,3.1,3
2015/4/3 8:33,2.3,4,2.4,4,3.3,3
2015/4/3 8:34,2.4,4,2.4,4,3.6,3
2015/4/3 8:35,2.3,4,2.4,4,3.7,4
2015/4/3 8:36,2.2,4,2.3,4,3.7,3
2015/4/3 8:37,2.2,4,2.2,4,3.7,5
2015/4/3 8:38,2.3,4,2.3,4,5.4,5
2015/4/3 8:39,2.4,4,2.4,4,4.4,6
2015/4/3 8:40,2.4,4,2.4,4,3.2,4
2015/4/3 8:41,2.4,4,2.4,4,4.1,3
2015/4/3 8:42,2.6,4,2.6,4,4.1,4
2015/4/3 8:43,2.6,4,2.6,4,3.2,5
2015/4/3 8:44,2.5,4,2.6,4,3.1,3
2015/4/3 8:45,2.5,4,2.5,4,3.3,4
2015/4/3 8:46,2.5,4,2.5,4,3.3,4
2015/4/3 8:47,2.4,4,2.5,4,3,5
2015/4/3 8:48,2.3,4,2.4,4,3.2,5
2015/4/3 8:49,2.2,4,2.3,4,3.9,3
2015/4/3 8:50,2.2,4,2.3,4,4.2,6
2015/4/3 8:51,2.2,4,2.2,4,4.9,6
2015/4/3 8:52,2.3,4,2.3,4,5.8,5
2015/4/3 8:53,2.3,4,2.3,4,3.5,5
2015/4/3 8:54,2.4,4,2.4,4,5.1,5
2015/4/3 8:55,2.5,4,2.5,4,3.3,4
2015/4/3 8:56,2.5,5,2.5,4,4.3,4
2015/4/3 8:57,2.5,5,2.5,4,3.1,4
2015/4/3 8:58,2.5,5,2.5,4,3.5,5
2015/4/3 8:59,2.5,5,2.5,4,3.6,5
2015/4/3 9:00,2.4,5,2.5,4,3,4
2015/4/3 9:01,2.3,5,2.4,4,2.2,4
2015/4/3 9:02,2,5,2.2,4,2,5
2015/4/3 9:03,1.9,5,2,4,2,4
2015/4/3 9:04,1.8,5,1.9,4,2,5
2015/4/3 9:05,1.6,5,1.8,4,1.3,4
2015/4/3 9:06,1.5,4,1.6,5,3.7,4
2015/4/3 9:07,1.5,4,1.5,5,2.4,4
2015/4/3 9:08,1.4,5,1.4,5,1.9,5
2015/4/3 9:09,1.3,5,1.4,5,2.2,4
2015/4/3 9:10,1.2,5,1.3,5,1.3,7
2015/4/3 9:11,1.2,5,1.2,5,1.9,3
2015/4/3 9:12,1.1,4,1.2,5,1.8,5
2015/4/3 9:13,1.1,4,1.1,5,1.4,1
2015/4/3 9:14,1.1,4,1.1,5,1.9,3
2015/4/3 9:15,1.1,4,1.1,4,1.6,6
2015/4/3 9:16,1,5,1.1,4,0.6,8
2015/4/3 9:17,0.9,5,1,4,0.8,5
2015/4/3 9:18,0.9,4,0.9,5,2.1,3
2015/4/3 9:19,0.9,4,0.9,5,3.8,5
2015/4/3 9:20,1.1,4,1.1,5,3.9,3
2015/4/3 9:21,1.2,4,1.2,5,3.5,4
2015/4/3 9:22,1.2,4,1.2,4,2.7,6
2015/4/3 9:23,1.1,5,1.2,4,0.6,7
2015/4/3 9:24,1,5,1.1,4,0.8,7
2015/4/3 9:25,1,6,1,4,1.6,6
2015/4/3 9:26,1,5,1,4,0.9,2
2015/4/3 9:27,1.1,5,1.1,4,0.9,8
2015/4/3 9:28,1,5,1.1,4,1.8,6
2015/4/3 9:29,1,6,1,4,1.5,9
2015/4/3 9:30,0.8,6,0.9,4,1.6,10
2015/4/3 9:31,0.6,7,0.8,4,1.1,8
2015/4/3 9:32,0.6,7,0.6,4,1,5
2015/4/3 9:33,0.7,7,0.7,5,1.9,5
2015/4/3 9:34,0.8,7,0.8,5,2.1,7
2015/4/3 9:35,0.9,6,0.9,5,2.4,6
2015/4/3 9:36,0.9,6,0.9,5,2.9,5
2015/4/3 9:37,1.1,6,1.1,5,4.2,6
2015/4/3 9:38,1.2,6,1.2,6,3,4
2015/4/3 9:39,1.3,6,1.3,6,2.7,6
2015/4/3 9:40,1.5,6,1.5,6,3.6,6
2015/4/3 9:41,1.6,6,1.6,6,2.6,5
2015/4/3 9:42,1.8,5,1.8,5,2.7,5
2015/4/3 9:43,1.8,5,1.8,5,2.2,5
2015/4/3 9:44,1.9,5,1.9,5,2.5,7
2015/4/3 9:45,2,5,2,5,3.9,6
2015/4/3 9:46,2.1,5,2.1,5,3.2,6
2015/4/3 9:47,2,5,2.1,5,2.7,5
2015/4/3 9:48,2,5,2,5,2.4,6
2015/4/3 9:49,2,5,2,5,2.7,5
2015/4/3 9:50,1.9,5,2,5,2,6
2015/4/3 9:51,1.9,5,1.9,5,2.5,4
2015/4/3 9:52,1.9,5,1.9,5,2.9,6
2015/4/3 9:53,1.9,5,1.9,5,2.9,6
2015/4/3 9:54,1.9,5,1.9,5,2.1,4
2015/4/3 9:55,1.7,5,1.8,5,1.3,5
2015/4/3 9:56,1.5,5,1.6,5,1.3,3
2015/4/3 9:57,1.5,5,1.5,5,1.5,3
2015/4/3 9:58,1.5,4,1.5,5,1.9,4
2015/4/3 9:59,1.4,4,1.5,5,2.9,5
2015/4/3 10:00,1.4,4,1.4,5,2,3
2015/4/3 10:01,1.5,4,1.5,5,2.6,5
2015/4/3 10:02,1.4,4,1.5,5,2.2,3
2015/4/3 10:03,1.4,4,1.4,5,4.3,5
2015/4/3 10:04,1.6,4,1.6,5,4.2,4
2015/4/3 10:05,1.7,4,1.7,4,3.2,5
2015/4/3 10:06,1.8,4,1.8,4,2.2,5
2015/4/3 10:07,1.9,4,1.9,4,3,5
2015/4/3 10:08,1.9,4,1.9,4,2.7,5
2015/4/3 10:09,2,4,2,4,2.9,5
2015/4/3 10:10,2,4,2,4,3.2,5
2015/4/3 10:11,2.1,4,2.1,4,3.1,3
2015/4/3 10:12,2.2,4,2.2,4,3.3,3
2015/4/3 10:13,2.2,4,2.3,4,3,3
2015/4/3 10:14,2.1,4,2.2,4,2.5,1
2015/4/3 10:15,2.1,3,2.1,4,3.5,2
2015/4/3 10:16,2.2,3,2.2,4,2.9,3
2015/4/3 10:17,2.2,3,2.2,4,4.1,3
2015/4/3 10:18,2.4,3,2.4,3,4.5,3
2015/4/3 10:19,2.5,3,2.5,3,4.5,3
2015/4/3 10:20,2.5,3,2.5,3,3.7,4
2015/4/3 10:21,2.4,3,2.5,3,2.6,3
2015/4/3 10:22,2.3,3,2.4,3,3,4
2015/4/3 10:23,2.3,3,2.3,3,2.9,3
2015/4/3 10:24,2.3,3,2.3,3,1.8,4
2015/4/3 10:25,2.2,3,2.3,3,1.3,4
2015/4/3 10:26,2,3,2.1,3,1.6,4
2015/4/3 10:27,1.9,3,2,3,2.6,3
2015/4/3 10:28,1.8,3,1.9,3,3.8,5
2015/4/3 10:29,1.7,4,1.8,3,3.2,5
2015/4/3 10:30,1.7,4,1.7,3,3.9,5
2015/4/3 10:31,1.8,4,1.8,3,3.3,6
2015/4/3 10:32,1.8,5,1.8,3,2.4,7
2015/4/3 10:33,1.7,5,1.8,3,4.4,6
2015/4/3 10:34,1.9,5,1.9,3,5.4,6
2015/4/3 10:35,2,5,2,3,2.1,7
2015/4/3 10:36,2,6,2,3,1.9,10
2015/4/3 10:37,2,6,2,5,3.1,8
2015/4/3 10:38,2,6,2,5,3.7,8
2015/4/3 10:39,1.9,7,2,5,2.9,8
2015/4/3 10:40,1.8,7,1.9,5,1.6,8
2015/4/3 10:41,1.8,7,1.8,5,3.2,6
2015/4/3 10:42,1.8,7,1.8,5,2.2,6
2015/4/3 10:43,1.7,7,1.8,5,2.6,8
2015/4/3 10:44,1.5,7,1.7,5,2.7,5
2015/4/3 10:45,1.5,7,1.5,5,2.7,5
2015/4/3 10:46,1.6,6,1.6,6,2.1,6
2015/4/3 10:47,1.7,6,1.7,6,3.5,4
2015/4/3 10:48,1.6,6,1.7,6,2.9,5
2015/4/3 10:49,1.7,6,1.7,7,3.2,5
2015/4/3 10:50,1.8,5,1.8,7,3.5,5
2015/4/3 10:51,1.8,5,1.9,5,2.5,4
2015/4/3 10:52,1.8,5,1.8,5,2.7,5
2015/4/3 10:53,1.8,5,1.8,5,1.8,4
2015/4/3 10:54,1.9,5,1.9,5,2.7,3
2015/4/3 10:55,2,4,2,4,3,3
2015/4/3 10:56,2,4,2,4,3.1,2
2015/4/3 10:57,2,4,2,4,2.5,2
2015/4/3 10:58,2,4,2,4,2.6,3
2015/4/3 10:59,2,4,2,4,2.6,4
2015/4/3 11:00,1.8,3,1.9,4,1.8,2
2015/4/3 11:01,1.8,3,1.8,4,3.1,3
2015/4/3 11:02,1.8,3,1.8,4,2.9,3
2015/4/3 11:03,1.9,3,1.9,4,3,4
2015/4/3 11:04,1.9,3,1.9,4,3.7,3
2015/4/3 11:05,1.9,3,1.9,4,4.7,2
2015/4/3 11:06,2,3,2,4,4.2,3
2015/4/3 11:07,2.1,3,2.1,3,4.2,2
2015/4/3 11:08,2.2,2,2.2,2,3.8,3
2015/4/3 11:09,2.2,2,2.2,2,3.2,2
2015/4/3 11:10,2.2,2,2.2,2,3.7,1
2015/4/3 11:11,2.4,2,2.4,2,4.5,3
2015/4/3 11:12,2.3,2,2.4,2,3.1,2
2015/4/3 11:13,2.5,2,2.5,2,4.8,3
2015/4/3 11:14,2.5,2,2.6,2,4.3,3
2015/4/3 11:15,2.5,2,2.6,2,3.6,2
2015/4/3 11:16,2.5,2,2.5,2,3.6,3
2015/4/3 11:17,2.4,2,2.5,2,3.2,3
2015/4/3 11:18,2.4,2,2.4,2,3.6,3
2015/4/3 11:19,2.4,2,2.4,2,3.6,2
2015/4/3 11:20,2.4,2,2.4,2,3,3
2015/4/3 11:21,2.5,3,2.5,2,4.5,3
2015/4/3 11:22,2.6,3,2.6,2,4.4,3
2015/4/3 11:23,2.5,3,2.6,2,4.5,3
2015/4/3 11:24,2.6,3,2.6,2,4.5,3
2015/4/3 11:25,2.8,3,2.8,3,5.4,4
2015/4/3 11:26,2.8,3,2.8,3,5.1,3
2015/4/3 11:27,3,3,3,3,4.9,3
2015/4/3 11:28,3.1,3,3.1,3,4.9,3
2015/4/3 11:29,3.2,3,3.2,3,4.8,4
2015/4/3 11:30,3.2,3,3.2,3,4.2,4
2015/4/3 11:31,3,3,3.2,3,2.7,5
2015/4/3 11:32,2.8,3,3,3,1.6,3
2015/4/3 11:33,2.7,3,2.8,3,1.8,5
2015/4/3 11:34,2.5,3,2.7,3,2.2,2
2015/4/3 11:35,2.3,3,2.5,3,2.6,3
2015/4/3 11:36,2.1,3,2.3,3,2.6,3
2015/4/3 11:37,2,3,2.1,3,2.7,4
2015/4/3 11:38,1.8,3,2,3,2.7,4
2015/4/3 11:39,1.8,3,1.8,3,4.3,4
2015/4/3 11:40,1.9,3,1.9,3,3.9,4
2015/4/3 11:41,2,3,2,3,3.9,3
2015/4/3 11:42,2.1,3,2.1,3,2.1,4
2015/4/3 11:43,2.1,3,2.1,3,2.7,3
2015/4/3 11:44,2.1,3,2.1,3,2.6,3
2015/4/3 11:45,2,3,2.1,3,2.2,3
2015/4/3 11:46,2,3,2,3,2.9,3
2015/4/3 11:47,2,3,2,3,3,2
2015/4/3 11:48,2.1,3,2.1,3,3.9,3
2015/4/3 11:49,2.2,3,2.2,3,4.5,3
2015/4/3 11:50,2.2,3,2.2,3,5.2,4
2015/4/3 11:51,2.2,3,2.2,3,2.9,4
2015/4/3 11:52,2.2,3,2.2,3,2.6,3
2015/4/3 11:53,2.1,3,2.2,3,1.4,3
2015/4/3 11:54,2.1,3,2.1,3,1.1,2
2015/4/3 11:55,2,3,2.1,3,1.8,3
2015/4/3 11:56,1.9,2,2,3,1,16
2015/4/3 11:57,1.8,2,1.9,3,2.2,2
2015/4/3 11:58,1.7,2,1.8,3,3,1
2015/4/3 11:59,1.5,2,1.7,3,2.6,2
2015/4/3 12:00,1.4,2,1.5,3,2.9,3
2015/4/3 12:01,1.4,2,1.4,3,3.1,3
2015/4/3 12:02,1.3,2,1.4,3,1.8,3
2015/4/3 12:03,1.4,2,1.4,3,2.6,3
2015/4/3 12:04,1.5,2,1.5,3,2.1,3
2015/4/3 12:05,1.5,2,1.5,3,2.1,3
2015/4/3 12:06,1.6,2,1.6,2,3.2,3
2015/4/3 12:07,1.7,3,1.7,2,3.2,3
2015/4/3 12:08,1.8,3,1.8,3,3.1,3
2015/4/3 12:09,1.7,3,1.8,3,1.6,1
2015/4/3 12:10,1.6,3,1.7,3,1.9,16
2015/4/3 12:11,1.5,2,1.6,3,2,2